View from above orbital plane
|
View from above satellite
|
Ground track
|
The orbit data is extracted from the following two-line orbital elements,
1 14032U 83037A 21018.85761386 .00000718 00000-0 33006-4 0 9999
2 14032 82.5142 230.4480 0017952 41.4612 318.7980 15.18587133 60113
Epoch (UTC): | 18 January 2021 20:34:57 |
Eccentricity: | 0.0017952 |
inclination: | 82.5142° |
perigee height: | 498 km |
apogee height: | 522 km |
right ascension of ascending node: | 230.4480° |
argument of perigee: | 41.4612° |
revolutions per day: | 15.18587133 |
mean anomaly at epoch: | 318.7980° |
orbit number at epoch: | 6011 |
The dashed part of the orbit path shows where the satellite is in the earth's shadow,
|
|